Total_Precipitation_Accumulation
1.55 1.43 1.27 1.05 0.92 0.91 0.94 0.93 0.89 0.91 0.87 0.88 0.87 0.93 1.07 1.08 1.10 1.28 1.38 1.40 1.53 1.63 1.60 1.63 1.79 1.91 2.02 2.03 2.03 2.03 2.07 2.04 1.90 1.65 1.30 1.15 1.29 1.31 1.36 1.16 1.13 1.17 1.11
1.29 1.12 0.94 0.80 0.73 0.74 0.76 0.73 0.66 0.68 0.64 0.69 0.76 0.76 0.95 1.11 1.14 1.19 1.20 1.20 1.34 1.44 1.46 1.53 1.56 1.57 1.68 1.80 1.92 1.89 1.95 1.99 1.96 1.84 1.55 1.32 1.32 1.42 1.59 1.54 1.39 1.28 1.26
1.20 1.06 0.92 0.81 0.77 0.75 0.69 0.65 0.55 0.51 0.57 0.63 0.74 0.74 0.78 0.93 1.04 1.06 1.06 1.08 1.14 1.19 1.23 1.30 1.33 1.41 1.55 1.56 1.63 1.70 1.77 1.82 1.94 1.89 1.80 1.67 1.51 1.45 1.54 1.52 1.55 1.66 1.58
1.33 1.18 1.05 0.94 0.83 0.77 0.64 0.59 0.51 0.54 0.60 0.62 0.60 0.64 0.69 0.79 0.91 0.94 0.96 0.96 0.97 0.98 1.09 1.16 1.22 1.27 1.37 1.43 1.45 1.59 1.71 1.79 1.82 1.79 1.74 1.66 1.61 1.56 1.57 1.57 1.64 1.77 1.84
1.04 0.85 0.78 0.75 0.72 0.62 0.56 0.53 0.48 0.45 0.44 0.48 0.46 0.48 0.53 0.62 0.69 0.71 0.78 0.86 0.91 0.93 1.03 1.05 1.08 1.08 1.12 1.18 1.18 1.37 1.52 1.69 1.76 1.79 1.69 1.58 1.52 1.53 1.52 1.55 1.63 1.84 1.89
0.70 0.63 0.60 0.55 0.49 0.47 0.48 0.44 0.39 0.35 0.31 0.36 0.39 0.43 0.45 0.47 0.59 0.61 0.62 0.71 0.81 0.86 0.93 0.96 1.04 1.08 1.04 0.99 0.96 1.03 1.16 1.28 1.47 1.60 1.64 1.56 1.48 1.45 1.57 1.69 1.68 1.81 1.93
0.44 0.39 0.40 0.42 0.39 0.36 0.37 0.38 0.37 0.36 0.34 0.36 0.38 0.44 0.40 0.39 0.47 0.45 0.57 0.73 0.75 0.75 0.76 0.89 1.00 1.04 1.08 1.07 0.97 0.97 0.96 0.98 1.09 1.27 1.40 1.42 1.41 1.44 1.55 1.66 1.74 1.80 1.70
0.35 0.32 0.32 0.34 0.35 0.35 0.37 0.38 0.37 0.36 0.35 0.40 0.41 0.45 0.40 0.33 0.39 0.42 0.51 0.61 0.66 0.64 0.67 0.79 0.94 1.05 1.11 1.12 1.07 1.12 1.06 0.94 0.92 0.98 1.16 1.26 1.30 1.47 1.66 1.84 1.95 1.95 1.83
0.30 0.31 0.32 0.34 0.36 0.36 0.34 0.33 0.32 0.32 0.32 0.38 0.45 0.45 0.38 0.32 0.36 0.43 0.53 0.62 0.69 0.68 0.68 0.74 0.90 0.98 1.13 1.17 1.10 1.18 1.17 0.96 0.89 0.97 1.01 1.10 1.25 1.41 1.63 1.85 1.93 1.94 1.91
0.29 0.31 0.35 0.36 0.35 0.34 0.37 0.39 0.34 0.31 0.33 0.36 0.39 0.38 0.34 0.35 0.39 0.41 0.49 0.52 0.62 0.70 0.73 0.75 0.97 1.03 1.12 1.08 1.03 1.22 1.31 1.14 0.88 0.87 0.95 1.09 1.20 1.36 1.61 1.78 2.02 2.03 1.84
0.33 0.36 0.34 0.33 0.33 0.38 0.40 0.43 0.43 0.38 0.35 0.35 0.33 0.32 0.31 0.33 0.39 0.39 0.45 0.40 0.43 0.50 0.59 0.64 0.66 0.82 0.89 0.93 1.00 1.06 1.21 1.11 0.96 1.05 1.15 1.16 1.25 1.32 1.45 1.60 1.84 2.02 1.96
0.31 0.31 0.30 0.29 0.30 0.35 0.41 0.37 0.35 0.38 0.38 0.36 0.32 0.29 0.30 0.30 0.31 0.34 0.39 0.39 0.43 0.46 0.47 0.53 0.59 0.73 0.78 0.83 0.86 0.90 0.99 1.02 1.04 1.18 1.20 1.09 1.14 1.23 1.31 1.45 1.58 1.71 1.62
0.30 0.30 0.33 0.35 0.36 0.37 0.42 0.40 0.35 0.36 0.39 0.41 0.43 0.40 0.36 0.33 0.31 0.35 0.38 0.39 0.43 0.43 0.47 0.56 0.59 0.68 0.64 0.66 0.76 0.80 0.87 1.06 1.18 1.14 1.11 1.05 1.03 1.10 1.16 1.33 1.48 1.60 1.57
0.38 0.37 0.40 0.42 0.45 0.45 0.42 0.43 0.40 0.38 0.42 0.44 0.45 0.46 0.43 0.41 0.35 0.34 0.35 0.37 0.43 0.45 0.50 0.57 0.61 0.64 0.62 0.63 0.70 0.79 0.89 1.06 1.23 1.10 0.97 0.97 0.99 1.09 1.19 1.22 1.29 1.35 1.49
0.36 0.39 0.44 0.47 0.52 0.55 0.52 0.49 0.49 0.48 0.50 0.51 0.48 0.51 0.49 0.44 0.44 0.48 0.45 0.44 0.49 0.50 0.54 0.61 0.71 0.79 0.76 0.77 0.83 0.87 0.91 0.93 1.01 0.96 0.97 1.03 1.10 1.11 1.17 1.24 1.26 1.23 1.23
0.35 0.40 0.42 0.47 0.50 0.53 0.58 0.58 0.61 0.60 0.62 0.59 0.57 0.53 0.48 0.50 0.53 0.56 0.58 0.57 0.59 0.62 0.69 0.68 0.79 0.94 0.98 0.98 1.00 1.02 1.04 1.00 1.01 1.00 1.04 1.08 1.09 1.08 1.10 1.20 1.31 1.33 1.23
0.35 0.39 0.43 0.45 0.47 0.50 0.53 0.59 0.62 0.60 0.58 0.56 0.56 0.56 0.50 0.49 0.50 0.50 0.54 0.60 0.64 0.71 0.69 0.72 0.92 0.99 0.98 0.98 1.03 1.07 1.00 0.89 0.92 0.96 0.94 0.95 0.96 0.97 0.99 1.04 1.13 1.19 1.19
0.39 0.43 0.47 0.48 0.48 0.52 0.53 0.53 0.57 0.59 0.57 0.51 0.48 0.50 0.51 0.51 0.49 0.49 0.55 0.59 0.64 0.70 0.73 0.91 1.10 1.16 1.10 1.04 1.01 0.98 0.89 0.83 0.81 0.82 0.86 0.89 0.93 0.96 0.96 0.96 0.97 1.01 1.04
0.41 0.41 0.44 0.47 0.48 0.51 0.52 0.53 0.52 0.53 0.52 0.50 0.49 0.50 0.54 0.54 0.55 0.56 0.57 0.57 0.62 0.68 0.78 0.91 1.05 1.16 1.12 1.00 0.93 0.90 0.86 0.83 0.80 0.81 0.85 0.90 0.92 0.95 0.93 0.92 0.92 0.99 1.01
0.40 0.48 0.49 0.48 0.46 0.47 0.49 0.51 0.51 0.53 0.56 0.56 0.56 0.61 0.63 0.59 0.57 0.62 0.65 0.66 0.70 0.73 0.75 0.78 0.82 0.83 0.80 0.79 0.84 0.84 0.83 0.86 0.86 0.85 0.87 0.89 0.94 1.01 1.01 0.96 0.94 0.95 0.96
0.41 0.51 0.53 0.46 0.41 0.44 0.50 0.53 0.51 0.52 0.54 0.57 0.57 0.64 0.69 0.64 0.64 0.67 0.67 0.67 0.73 0.78 0.77 0.74 0.75 0.76 0.76 0.75 0.78 0.81 0.82 0.84 0.87 0.89 0.93 0.96 0.97 0.99 1.03 1.03 0.98 0.97 0.98
0.42 0.47 0.50 0.48 0.47 0.50 0.54 0.55 0.57 0.53 0.51 0.52 0.52 0.57 0.65 0.63 0.67 0.67 0.67 0.69 0.72 0.75 0.76 0.74 0.70 0.74 0.78 0.78 0.81 0.84 0.85 0.85 0.87 0.94 1.00 1.04 1.05 1.02 1.01 1.03 1.02 1.01 1.01
0.42 0.44 0.48 0.51 0.53 0.59 0.59 0.57 0.55 0.53 0.53 0.52 0.55 0.56 0.58 0.59 0.62 0.64 0.66 0.69 0.71 0.73 0.75 0.76 0.73 0.72 0.74 0.73 0.75 0.81 0.82 0.81 0.85 0.93 1.04 1.09 1.12 1.11 1.09 1.05 1.03 1.05 1.06
0.44 0.48 0.51 0.53 0.54 0.56 0.56 0.59 0.60 0.58 0.58 0.57 0.56 0.58 0.60 0.59 0.60 0.64 0.63 0.63 0.65 0.67 0.67 0.70 0.70 0.69 0.72 0.75 0.75 0.76 0.76 0.77 0.80 0.87 0.97 1.09 1.12 1.14 1.18 1.20 1.16 1.13 1.14
0.50 0.52 0.53 0.55 0.55 0.57 0.59 0.59 0.63 0.64 0.62 0.63 0.63 0.62 0.63 0.62 0.62 0.64 0.62 0.61 0.62 0.63 0.66 0.67 0.67 0.66 0.68 0.70 0.73 0.77 0.90 0.92 0.85 0.83 0.87 1.01 1.09 1.12 1.12 1.17 1.23 1.24 1.24
0.56 0.57 0.56 0.56 0.60 0.61 0.64 0.64 0.63 0.65 0.66 0.65 0.64 0.64 0.65 0.68 0.71 0.74 0.74 0.74 0.73 0.70 0.70 0.72 0.73 0.74 0.74 0.72 0.73 0.82 0.90 0.87 0.85 0.89 0.90 0.93 1.01 1.09 1.13 1.17 1.20 1.26 1.32